Year,Month,Day,Hour,Minute,Value (Times are PST for temperature in C)
2016,08,12,00,00,16.20
2016,08,12,00,01,16.20
2016,08,12,00,02,16.10
2016,08,12,00,03,16.10
2016,08,12,00,04,16.10
2016,08,12,00,05,16.00
2016,08,12,00,06,16.00
2016,08,12,00,07,16.00
2016,08,12,00,08,16.00
2016,08,12,00,09,16.00
2016,08,12,00,10,15.90
2016,08,12,00,11,15.90
2016,08,12,00,12,15.80
2016,08,12,00,13,15.80
2016,08,12,00,14,15.80
2016,08,12,00,15,15.80
2016,08,12,00,16,15.80
2016,08,12,00,17,15.80
2016,08,12,00,18,15.80
2016,08,12,00,19,15.80
2016,08,12,00,20,15.80
2016,08,12,00,21,15.80
2016,08,12,00,22,15.80
2016,08,12,00,23,15.80
2016,08,12,00,24,15.80
2016,08,12,00,25,15.80
2016,08,12,00,26,15.70
2016,08,12,00,27,15.70
2016,08,12,00,28,15.70
2016,08,12,00,29,15.70
2016,08,12,00,30,15.70
2016,08,12,00,31,15.70
2016,08,12,00,32,15.60
2016,08,12,00,33,15.60
2016,08,12,00,34,15.60
2016,08,12,00,35,15.60
2016,08,12,00,36,15.60
2016,08,12,00,37,15.60
2016,08,12,00,38,15.50
2016,08,12,00,39,15.50
2016,08,12,00,40,15.50
2016,08,12,00,41,15.50
2016,08,12,00,42,15.40
2016,08,12,00,43,15.40
2016,08,12,00,44,15.40
2016,08,12,00,45,15.40
2016,08,12,00,46,15.40
2016,08,12,00,47,15.30
2016,08,12,00,48,15.30
2016,08,12,00,49,15.30
2016,08,12,00,50,15.30
2016,08,12,00,51,15.30
2016,08,12,00,52,15.30
2016,08,12,00,53,15.30
2016,08,12,00,54,15.20
2016,08,12,00,55,15.20
2016,08,12,00,56,15.20
2016,08,12,00,57,15.20
2016,08,12,00,58,15.10
2016,08,12,00,59,15.10
2016,08,12,01,00,15.10
2016,08,12,01,01,15.00
2016,08,12,01,02,15.00
2016,08,12,01,03,15.00
2016,08,12,01,04,15.00
2016,08,12,01,05,15.00
2016,08,12,01,06,15.00
2016,08,12,01,07,15.00
2016,08,12,01,08,15.00
2016,08,12,01,09,15.00
2016,08,12,01,10,15.00
2016,08,12,01,11,15.00
2016,08,12,01,12,15.00
2016,08,12,01,13,15.00
2016,08,12,01,14,15.00
2016,08,12,01,15,15.00
2016,08,12,01,16,15.00
2016,08,12,01,17,15.00
2016,08,12,01,18,14.90
2016,08,12,01,19,14.90
2016,08,12,01,20,14.80
2016,08,12,01,21,14.80
2016,08,12,01,22,14.80
2016,08,12,01,23,14.80
2016,08,12,01,24,14.80
2016,08,12,01,25,14.80
2016,08,12,01,26,14.80
2016,08,12,01,27,14.80
2016,08,12,01,28,14.70
2016,08,12,01,29,14.70
2016,08,12,01,30,14.70
2016,08,12,01,31,14.70
2016,08,12,01,32,14.70
2016,08,12,01,33,14.60
2016,08,12,01,34,14.60
2016,08,12,01,35,14.60
2016,08,12,01,36,14.60
2016,08,12,01,37,14.60
2016,08,12,01,38,14.60
2016,08,12,01,39,14.60
2016,08,12,01,40,14.60
2016,08,12,01,41,14.60
2016,08,12,01,42,14.50
2016,08,12,01,43,14.50
2016,08,12,01,44,14.50
2016,08,12,01,45,14.50
2016,08,12,01,46,14.50
2016,08,12,01,47,14.40
2016,08,12,01,48,14.40
2016,08,12,01,49,14.40
2016,08,12,01,50,14.40
2016,08,12,01,51,14.40
2016,08,12,01,52,14.40
2016,08,12,01,53,14.40
2016,08,12,01,54,14.30
2016,08,12,01,55,14.30
2016,08,12,01,56,14.30
2016,08,12,01,57,14.30
2016,08,12,01,58,14.30
2016,08,12,01,59,14.30
2016,08,12,02,00,14.20
2016,08,12,02,01,14.20
2016,08,12,02,02,14.20
2016,08,12,02,03,14.20
2016,08,12,02,04,14.20
2016,08,12,02,05,14.20
2016,08,12,02,06,14.20
2016,08,12,02,07,14.10
2016,08,12,02,08,14.10
2016,08,12,02,09,14.10
2016,08,12,02,10,14.10
2016,08,12,02,11,14.10
2016,08,12,02,12,14.10
2016,08,12,02,13,14.10
2016,08,12,02,14,14.10
2016,08,12,02,15,14.10
2016,08,12,02,16,14.00
2016,08,12,02,17,14.10
2016,08,12,02,18,14.10
2016,08,12,02,19,14.10
2016,08,12,02,20,14.10
2016,08,12,02,21,14.10
2016,08,12,02,22,14.10
2016,08,12,02,23,14.10
2016,08,12,02,24,14.10
2016,08,12,02,25,14.10
2016,08,12,02,26,14.00
2016,08,12,02,27,14.00
2016,08,12,02,28,14.00
2016,08,12,02,29,14.00
2016,08,12,02,30,14.00
2016,08,12,02,31,14.00
2016,08,12,02,32,14.00
2016,08,12,02,33,13.90
2016,08,12,02,34,13.90
2016,08,12,02,35,13.90
2016,08,12,02,36,13.90
2016,08,12,02,37,13.90
2016,08,12,02,38,13.90
2016,08,12,02,39,13.90
2016,08,12,02,40,13.90
2016,08,12,02,41,13.80
2016,08,12,02,42,13.80
2016,08,12,02,43,13.80
2016,08,12,02,44,13.80
2016,08,12,02,45,13.80
2016,08,12,02,46,13.80
2016,08,12,02,47,13.80
2016,08,12,02,48,13.80
2016,08,12,02,49,13.80
2016,08,12,02,50,13.80
2016,08,12,02,51,13.80
2016,08,12,02,52,13.80
2016,08,12,02,53,13.80
2016,08,12,02,54,13.80
2016,08,12,02,55,13.80
2016,08,12,02,56,13.70
2016,08,12,02,57,13.70
2016,08,12,02,58,13.70
2016,08,12,02,59,13.70
2016,08,12,03,00,13.70
2016,08,12,03,01,13.70
2016,08,12,03,02,13.60
2016,08,12,03,03,13.60
2016,08,12,03,04,13.60
2016,08,12,03,05,13.60
2016,08,12,03,06,13.60
2016,08,12,03,07,13.60
2016,08,12,03,08,13.60
2016,08,12,03,09,13.60
2016,08,12,03,10,13.50
2016,08,12,03,11,13.50
2016,08,12,03,12,13.50
2016,08,12,03,13,13.50
2016,08,12,03,14,13.50
2016,08,12,03,15,13.50
2016,08,12,03,16,13.40
2016,08,12,03,17,13.40
2016,08,12,03,18,13.40
2016,08,12,03,19,13.40
2016,08,12,03,20,13.50
2016,08,12,03,21,13.40
2016,08,12,03,22,13.40
2016,08,12,03,23,13.40
2016,08,12,03,24,13.40
2016,08,12,03,25,13.40
2016,08,12,03,26,13.40
2016,08,12,03,27,13.40
2016,08,12,03,28,13.40
2016,08,12,03,29,13.40
2016,08,12,03,30,13.40
2016,08,12,03,31,13.40
2016,08,12,03,32,13.40
2016,08,12,03,33,13.40
2016,08,12,03,34,13.30
2016,08,12,03,35,13.30
2016,08,12,03,36,13.30
2016,08,12,03,37,13.30
2016,08,12,03,38,13.30
2016,08,12,03,39,13.30
2016,08,12,03,40,13.30
2016,08,12,03,41,13.20
2016,08,12,03,42,13.20
2016,08,12,03,43,13.20
2016,08,12,03,44,13.20
2016,08,12,03,45,13.20
2016,08,12,03,46,13.20
2016,08,12,03,47,13.20
2016,08,12,03,48,13.20
2016,08,12,03,49,13.20
2016,08,12,03,50,13.10
2016,08,12,03,51,13.10
2016,08,12,03,52,13.10
2016,08,12,03,53,13.10
2016,08,12,03,54,13.10
2016,08,12,03,55,13.10
2016,08,12,03,56,13.10
2016,08,12,03,57,13.10
2016,08,12,03,58,13.10
2016,08,12,03,59,13.10
2016,08,12,04,00,13.00
2016,08,12,04,01,13.00
2016,08,12,04,02,13.00
2016,08,12,04,03,13.00
2016,08,12,04,04,13.00
2016,08,12,04,05,13.00
2016,08,12,04,06,13.00
2016,08,12,04,07,12.90
2016,08,12,04,08,12.90
2016,08,12,04,09,12.90
2016,08,12,04,10,12.90
2016,08,12,04,11,12.90
2016,08,12,04,12,12.90
2016,08,12,04,13,12.90
2016,08,12,04,14,12.90
2016,08,12,04,15,12.90
2016,08,12,04,16,12.80
2016,08,12,04,17,12.80
2016,08,12,04,18,12.80
2016,08,12,04,19,12.80
2016,08,12,04,20,12.80
2016,08,12,04,21,12.80
2016,08,12,04,22,12.80
2016,08,12,04,23,12.80
2016,08,12,04,24,12.80
2016,08,12,04,25,12.80
2016,08,12,04,26,12.80
2016,08,12,04,27,12.80
2016,08,12,04,28,12.80
2016,08,12,04,29,12.80
2016,08,12,04,30,12.80
2016,08,12,04,31,12.80
2016,08,12,04,32,12.80
2016,08,12,04,33,12.80
2016,08,12,04,34,12.70
2016,08,12,04,35,12.70
2016,08,12,04,36,12.70
2016,08,12,04,37,12.70
2016,08,12,04,38,12.70
2016,08,12,04,39,12.70
2016,08,12,04,40,12.70
2016,08,12,04,41,12.70
2016,08,12,04,42,12.70
2016,08,12,04,43,12.70
2016,08,12,04,44,12.70
2016,08,12,04,45,12.70
2016,08,12,04,46,12.70
2016,08,12,04,47,12.60
2016,08,12,04,48,12.60
2016,08,12,04,49,12.60
2016,08,12,04,50,12.60
2016,08,12,04,51,12.60
2016,08,12,04,52,12.60
2016,08,12,04,53,12.60
2016,08,12,04,54,12.60
2016,08,12,04,55,12.60
2016,08,12,04,56,12.60
2016,08,12,04,57,12.60
2016,08,12,04,58,12.60
2016,08,12,04,59,12.60
2016,08,12,05,00,12.60
2016,08,12,05,01,12.60
2016,08,12,05,02,12.60
2016,08,12,05,03,12.50
2016,08,12,05,04,12.50
2016,08,12,05,05,12.50
2016,08,12,05,06,12.50
2016,08,12,05,07,12.50
2016,08,12,05,08,12.40
2016,08,12,05,09,12.40
2016,08,12,05,10,12.40
2016,08,12,05,11,12.40
2016,08,12,05,12,12.40
2016,08,12,05,13,12.40
2016,08,12,05,14,12.40
2016,08,12,05,15,12.40
2016,08,12,05,16,12.40
2016,08,12,05,17,12.40
2016,08,12,05,18,12.40
2016,08,12,05,19,12.40
2016,08,12,05,20,12.40
2016,08,12,05,21,12.40
2016,08,12,05,22,12.40
2016,08,12,05,23,12.40
2016,08,12,05,24,12.40
2016,08,12,05,25,12.40
2016,08,12,05,26,12.40
2016,08,12,05,27,12.40
2016,08,12,05,28,12.40
2016,08,12,05,29,12.40
2016,08,12,05,30,12.40
2016,08,12,05,31,12.40
2016,08,12,05,32,12.40
2016,08,12,05,33,12.30
2016,08,12,05,34,12.30
2016,08,12,05,35,12.30
2016,08,12,05,36,12.30
2016,08,12,05,37,12.30
2016,08,12,05,38,12.30
2016,08,12,05,39,12.30
2016,08,12,05,40,12.30
2016,08,12,05,41,12.30
2016,08,12,05,42,12.30
2016,08,12,05,43,12.30
2016,08,12,05,44,12.30
2016,08,12,05,45,12.30
2016,08,12,05,46,12.20
2016,08,12,05,47,12.20
2016,08,12,05,48,12.20
2016,08,12,05,49,12.20
2016,08,12,05,50,12.20
2016,08,12,05,51,12.20
2016,08,12,05,52,12.20
2016,08,12,05,53,12.20
2016,08,12,05,54,12.20
2016,08,12,05,55,12.20
2016,08,12,05,56,12.20
2016,08,12,05,57,12.20
2016,08,12,05,58,12.10
2016,08,12,05,59,12.10
2016,08,12,06,00,12.10
2016,08,12,06,01,12.10
2016,08,12,06,02,12.10
2016,08,12,06,03,12.10
2016,08,12,06,04,12.10
2016,08,12,06,05,12.10
2016,08,12,06,06,12.10
2016,08,12,06,07,12.10
2016,08,12,06,08,12.10
2016,08,12,06,09,12.10
2016,08,12,06,10,12.10
2016,08,12,06,11,12.10
2016,08,12,06,12,12.10
2016,08,12,06,13,12.10
2016,08,12,06,14,12.00
2016,08,12,06,15,12.00
2016,08,12,06,16,12.00
2016,08,12,06,17,12.00
2016,08,12,06,18,12.00
2016,08,12,06,19,12.00
2016,08,12,06,20,12.00
2016,08,12,06,21,12.00
2016,08,12,06,22,11.90
2016,08,12,06,23,11.90
2016,08,12,06,24,11.90
2016,08,12,06,25,11.90
2016,08,12,06,26,11.90
2016,08,12,06,27,11.90
2016,08,12,06,28,11.90
2016,08,12,06,29,11.90
2016,08,12,06,30,11.90
2016,08,12,06,31,11.90
2016,08,12,06,32,11.90
2016,08,12,06,33,11.90
2016,08,12,06,34,11.90
2016,08,12,06,35,11.90
2016,08,12,06,36,11.90
2016,08,12,06,37,11.90
2016,08,12,06,38,11.90
2016,08,12,06,39,11.90
2016,08,12,06,40,11.90
2016,08,12,06,41,11.90
2016,08,12,06,42,11.90
2016,08,12,06,43,11.80
2016,08,12,06,44,11.90
2016,08,12,06,45,11.90
2016,08,12,06,46,11.90
2016,08,12,06,47,11.90
2016,08,12,06,48,11.90
2016,08,12,06,49,11.90
2016,08,12,06,50,11.90
2016,08,12,06,51,11.90
2016,08,12,06,52,11.90
2016,08,12,06,53,11.90
2016,08,12,06,54,11.90
2016,08,12,06,55,11.90
2016,08,12,06,56,11.90
2016,08,12,06,57,11.90
2016,08,12,06,58,11.90
2016,08,12,06,59,11.90
2016,08,12,07,00,11.90
2016,08,12,07,01,11.90
2016,08,12,07,02,11.90
2016,08,12,07,03,11.90
2016,08,12,07,04,11.90
2016,08,12,07,05,11.90
2016,08,12,07,06,11.90
2016,08,12,07,07,11.90
2016,08,12,07,08,11.90
2016,08,12,07,09,11.90
2016,08,12,07,10,11.90
2016,08,12,07,11,11.90
2016,08,12,07,12,11.90
2016,08,12,07,13,11.90
2016,08,12,07,14,11.90
2016,08,12,07,15,11.90
2016,08,12,07,16,11.90
2016,08,12,07,17,11.90
2016,08,12,07,18,11.90
2016,08,12,07,19,11.90
2016,08,12,07,20,11.90
2016,08,12,07,21,11.90
2016,08,12,07,22,11.90
2016,08,12,07,23,12.00
2016,08,12,07,24,12.00
2016,08,12,07,25,12.00
2016,08,12,07,26,12.00
2016,08,12,07,27,12.00
2016,08,12,07,28,12.00
2016,08,12,07,29,12.10
2016,08,12,07,30,12.10
2016,08,12,07,31,12.10
2016,08,12,07,32,12.10
2016,08,12,07,33,12.10
2016,08,12,07,34,12.20
2016,08,12,07,35,12.20
2016,08,12,07,36,12.20
2016,08,12,07,37,12.30
2016,08,12,07,38,12.30
2016,08,12,07,39,12.30
2016,08,12,07,40,12.40
2016,08,12,07,41,12.40
2016,08,12,07,42,12.50
2016,08,12,07,43,12.50
2016,08,12,07,44,12.60
2016,08,12,07,45,12.70
2016,08,12,07,46,12.70
2016,08,12,07,47,12.80
2016,08,12,07,48,12.80
2016,08,12,07,49,12.90
2016,08,12,07,50,12.90
2016,08,12,07,51,12.90
2016,08,12,07,52,13.00
2016,08,12,07,53,13.10
2016,08,12,07,54,13.10
2016,08,12,07,55,13.20
2016,08,12,07,56,13.30
2016,08,12,07,57,13.50
2016,08,12,07,58,13.50
2016,08,12,07,59,13.60
2016,08,12,08,00,13.60
2016,08,12,08,01,13.70
2016,08,12,08,02,13.80
2016,08,12,08,03,13.90
2016,08,12,08,04,13.90
2016,08,12,08,05,13.90
2016,08,12,08,06,14.00
2016,08,12,08,07,14.00
2016,08,12,08,08,14.10
2016,08,12,08,09,14.20
2016,08,12,08,10,14.20
2016,08,12,08,11,14.30
2016,08,12,08,12,14.40
2016,08,12,08,13,14.50
2016,08,12,08,14,14.60
2016,08,12,08,15,14.70
2016,08,12,08,16,14.80
2016,08,12,08,17,15.00
2016,08,12,08,18,15.00
2016,08,12,08,19,15.00
2016,08,12,08,20,15.00
2016,08,12,08,21,15.20
2016,08,12,08,22,15.30
2016,08,12,08,23,15.30
2016,08,12,08,24,15.40
2016,08,12,08,25,15.50
2016,08,12,08,26,15.60
2016,08,12,08,27,15.60
2016,08,12,08,28,15.70
2016,08,12,08,29,15.70
2016,08,12,08,30,15.80
2016,08,12,08,31,15.80
2016,08,12,08,32,15.90
2016,08,12,08,33,16.00
2016,08,12,08,34,16.10
2016,08,12,08,35,16.20
2016,08,12,08,36,16.20
2016,08,12,08,37,16.30
2016,08,12,08,38,16.30
2016,08,12,08,39,16.40
2016,08,12,08,40,16.40
2016,08,12,08,41,16.50
2016,08,12,08,42,16.50
2016,08,12,08,43,16.60
2016,08,12,08,44,16.70
2016,08,12,08,45,16.70
2016,08,12,08,46,16.80
2016,08,12,08,47,16.90
2016,08,12,08,48,17.00
2016,08,12,08,49,17.20
2016,08,12,08,50,17.20
2016,08,12,08,51,17.30
2016,08,12,08,52,17.40
2016,08,12,08,53,17.50
2016,08,12,08,54,17.60
2016,08,12,08,55,17.70
2016,08,12,08,56,17.80
2016,08,12,08,57,17.80
2016,08,12,08,58,17.90
2016,08,12,08,59,18.00
2016,08,12,09,00,18.10
2016,08,12,09,01,18.10
2016,08,12,09,02,18.20
2016,08,12,09,03,18.20
2016,08,12,09,04,18.30
2016,08,12,09,05,18.30
2016,08,12,09,06,18.40
2016,08,12,09,07,18.50
2016,08,12,09,08,18.50
2016,08,12,09,09,18.60
2016,08,12,09,10,18.60
2016,08,12,09,11,18.70
2016,08,12,09,12,18.80
2016,08,12,09,13,18.80
2016,08,12,09,14,18.90
2016,08,12,09,15,19.00
2016,08,12,09,16,19.00
2016,08,12,09,17,19.10
2016,08,12,09,18,19.20
2016,08,12,09,19,19.30
2016,08,12,09,20,19.40
2016,08,12,09,21,19.50
2016,08,12,09,22,19.60
2016,08,12,09,23,19.70
2016,08,12,09,24,19.80
2016,08,12,09,25,19.80
2016,08,12,09,26,19.90
2016,08,12,09,27,20.00
2016,08,12,09,28,20.10
2016,08,12,09,29,20.20
2016,08,12,09,30,20.20
2016,08,12,09,31,20.30
2016,08,12,09,32,20.40
2016,08,12,09,33,20.50
2016,08,12,09,34,20.60
2016,08,12,09,35,20.70
2016,08,12,09,36,20.80
2016,08,12,09,37,20.90
2016,08,12,09,38,21.00
2016,08,12,09,39,21.00
2016,08,12,09,40,21.10
2016,08,12,09,41,21.20
2016,08,12,09,42,21.30
2016,08,12,09,43,21.30
2016,08,12,09,44,21.40
2016,08,12,09,45,21.40
2016,08,12,09,46,21.50
2016,08,12,09,47,21.50
2016,08,12,09,48,21.60
2016,08,12,09,49,21.70
2016,08,12,09,50,21.80
2016,08,12,09,51,21.80
2016,08,12,09,52,21.80
2016,08,12,09,53,21.80
2016,08,12,09,54,21.90
2016,08,12,09,55,21.90
2016,08,12,09,56,21.90
2016,08,12,09,57,22.00
2016,08,12,09,58,22.10
2016,08,12,09,59,22.20
2016,08,12,10,00,22.20
2016,08,12,10,01,22.30
2016,08,12,10,02,22.40
2016,08,12,10,03,22.40
2016,08,12,10,04,22.50
2016,08,12,10,05,22.60
2016,08,12,10,06,22.70
2016,08,12,10,07,22.70
2016,08,12,10,08,22.70
2016,08,12,10,09,22.70
2016,08,12,10,10,22.70
2016,08,12,10,11,22.80
2016,08,12,10,12,22.90
2016,08,12,10,13,23.00
2016,08,12,10,14,23.10
2016,08,12,10,15,23.20
2016,08,12,10,16,23.30
2016,08,12,10,17,23.40
2016,08,12,10,18,23.50
2016,08,12,10,19,23.60
2016,08,12,10,20,23.60
2016,08,12,10,21,23.60
2016,08,12,10,22,23.60
2016,08,12,10,23,23.60
2016,08,12,10,24,23.60
2016,08,12,10,25,23.60
2016,08,12,10,26,23.60
2016,08,12,10,27,23.70
2016,08,12,10,28,23.70
2016,08,12,10,29,23.90
2016,08,12,10,30,24.00
2016,08,12,10,31,24.10
2016,08,12,10,32,24.20
2016,08,12,10,33,24.30
2016,08,12,10,34,24.40
2016,08,12,10,35,24.40
2016,08,12,10,36,24.60
2016,08,12,10,37,24.70
2016,08,12,10,38,24.80
2016,08,12,10,39,24.90
2016,08,12,10,40,25.00
2016,08,12,10,41,25.10
2016,08,12,10,42,25.10
2016,08,12,10,43,25.20
2016,08,12,10,44,25.20
2016,08,12,10,45,25.30
2016,08,12,10,46,25.40
2016,08,12,10,47,25.50
2016,08,12,10,48,25.60
2016,08,12,10,49,25.70
2016,08,12,10,50,25.70
2016,08,12,10,51,25.80
2016,08,12,10,52,25.90
2016,08,12,10,53,25.90
2016,08,12,10,54,25.90
2016,08,12,10,55,25.90
2016,08,12,10,56,25.90
2016,08,12,10,57,25.90
2016,08,12,10,58,25.90
2016,08,12,10,59,26.00
2016,08,12,11,00,26.10
2016,08,12,11,01,26.10
2016,08,12,11,02,26.10
2016,08,12,11,03,26.20
2016,08,12,11,04,26.20
2016,08,12,11,05,26.20
2016,08,12,11,06,26.20
2016,08,12,11,07,26.20
2016,08,12,11,08,26.30
2016,08,12,11,09,26.40
2016,08,12,11,10,26.50
2016,08,12,11,11,26.50
2016,08,12,11,12,26.60
2016,08,12,11,13,26.70
2016,08,12,11,14,26.70
2016,08,12,11,15,26.70
2016,08,12,11,16,26.60
2016,08,12,11,17,26.50
2016,08,12,11,18,26.40
2016,08,12,11,19,26.30
2016,08,12,11,20,26.30
2016,08,12,11,21,26.20
2016,08,12,11,22,26.20
2016,08,12,11,23,26.30
2016,08,12,11,24,26.30
2016,08,12,11,25,26.30
2016,08,12,11,26,26.30
2016,08,12,11,27,26.30
2016,08,12,11,28,26.30
2016,08,12,11,29,26.30
2016,08,12,11,30,26.30
2016,08,12,11,31,26.50
2016,08,12,11,32,26.70
2016,08,12,11,33,26.80
2016,08,12,11,34,26.90
2016,08,12,11,35,26.90
2016,08,12,11,36,27.00
2016,08,12,11,37,27.10
2016,08,12,11,38,27.10
2016,08,12,11,39,27.20
2016,08,12,11,40,27.30
2016,08,12,11,41,27.40
2016,08,12,11,42,27.40
2016,08,12,11,43,27.50
2016,08,12,11,44,27.60
2016,08,12,11,45,27.70
2016,08,12,11,46,27.80
2016,08,12,11,47,27.80
2016,08,12,11,48,27.80
2016,08,12,11,49,27.70
2016,08,12,11,50,27.60
2016,08,12,11,51,27.60
2016,08,12,11,52,27.50
2016,08,12,11,53,27.40
2016,08,12,11,54,27.30
2016,08,12,11,55,27.30
2016,08,12,11,56,27.30
2016,08,12,11,57,27.30
2016,08,12,11,58,27.20
2016,08,12,11,59,27.30
2016,08,12,12,00,27.20
2016,08,12,12,01,27.20
2016,08,12,12,02,27.30
2016,08,12,12,03,27.30
2016,08,12,12,04,27.30
2016,08,12,12,05,27.30
2016,08,12,12,06,27.30
2016,08,12,12,07,27.30
2016,08,12,12,08,27.30
2016,08,12,12,09,27.40
2016,08,12,12,10,27.40
2016,08,12,12,11,27.50
2016,08,12,12,12,27.60
2016,08,12,12,13,27.60
2016,08,12,12,14,27.70
2016,08,12,12,15,27.70
2016,08,12,12,16,27.70
2016,08,12,12,17,27.70
2016,08,12,12,18,27.80
2016,08,12,12,19,27.80
2016,08,12,12,20,27.80
2016,08,12,12,21,27.90
2016,08,12,12,22,27.90
2016,08,12,12,23,27.90
2016,08,12,12,24,27.90
2016,08,12,12,25,28.00
2016,08,12,12,26,28.10
2016,08,12,12,27,28.10
2016,08,12,12,28,28.10
2016,08,12,12,29,28.10
2016,08,12,12,30,28.20
2016,08,12,12,31,28.20
2016,08,12,12,32,28.20
2016,08,12,12,33,28.20
2016,08,12,12,34,28.20
2016,08,12,12,35,28.30
2016,08,12,12,36,28.30
2016,08,12,12,37,28.30
2016,08,12,12,38,28.30
2016,08,12,12,39,28.40
2016,08,12,12,40,28.40
2016,08,12,12,41,28.40
2016,08,12,12,42,28.40
2016,08,12,12,43,28.50
2016,08,12,12,44,28.50
2016,08,12,12,45,28.60
2016,08,12,12,46,28.60
2016,08,12,12,47,28.70
2016,08,12,12,48,28.80
2016,08,12,12,49,28.80
2016,08,12,12,50,28.80
2016,08,12,12,51,28.80
2016,08,12,12,52,28.80
2016,08,12,12,53,28.90
2016,08,12,12,54,28.90
2016,08,12,12,55,29.00
2016,08,12,12,56,29.00
2016,08,12,12,57,29.00
2016,08,12,12,58,29.00
2016,08,12,12,59,29.00
2016,08,12,13,00,29.00
2016,08,12,13,01,29.10
2016,08,12,13,02,29.10
2016,08,12,13,03,29.20
2016,08,12,13,04,29.20
2016,08,12,13,05,29.20
2016,08,12,13,06,29.20
2016,08,12,13,07,29.20
2016,08,12,13,08,29.20
2016,08,12,13,09,29.20
2016,08,12,13,10,29.20
2016,08,12,13,11,29.20
2016,08,12,13,12,29.20
2016,08,12,13,13,29.30
2016,08,12,13,14,29.30
2016,08,12,13,15,29.40
2016,08,12,13,16,29.40
2016,08,12,13,17,29.40
2016,08,12,13,18,29.50
2016,08,12,13,19,29.70
2016,08,12,13,20,29.80
2016,08,12,13,21,29.80
2016,08,12,13,22,29.80
2016,08,12,13,23,29.80
2016,08,12,13,24,29.80
2016,08,12,13,25,29.80
2016,08,12,13,26,29.80
2016,08,12,13,27,29.70
2016,08,12,13,28,29.70
2016,08,12,13,29,29.70
2016,08,12,13,30,29.70
2016,08,12,13,31,29.70
2016,08,12,13,32,29.60
2016,08,12,13,33,29.60
2016,08,12,13,34,29.60
2016,08,12,13,35,29.70
2016,08,12,13,36,29.70
2016,08,12,13,37,29.70
2016,08,12,13,38,29.70
2016,08,12,13,39,29.70
2016,08,12,13,40,29.70
2016,08,12,13,41,29.70
2016,08,12,13,42,29.80
2016,08,12,13,43,29.80
2016,08,12,13,44,29.90
2016,08,12,13,45,29.90
2016,08,12,13,46,29.90
2016,08,12,13,47,30.00
2016,08,12,13,48,30.10
2016,08,12,13,49,30.10
2016,08,12,13,50,30.20
2016,08,12,13,51,30.20
2016,08,12,13,52,30.30
2016,08,12,13,53,30.30
2016,08,12,13,54,30.30
2016,08,12,13,55,30.20
2016,08,12,13,56,30.20
2016,08,12,13,57,30.20
2016,08,12,13,58,30.20
2016,08,12,13,59,30.10
2016,08,12,14,00,30.10
2016,08,12,14,01,30.10
2016,08,12,14,02,30.10
2016,08,12,14,03,30.10
2016,08,12,14,04,30.20
2016,08,12,14,05,30.20
2016,08,12,14,06,30.30
2016,08,12,14,07,30.30
2016,08,12,14,08,30.30
2016,08,12,14,09,30.30
2016,08,12,14,10,30.30
2016,08,12,14,11,30.30
2016,08,12,14,12,30.20
2016,08,12,14,13,30.20
2016,08,12,14,14,30.20
2016,08,12,14,15,30.20
2016,08,12,14,16,30.10
2016,08,12,14,17,30.10
2016,08,12,14,18,30.10
2016,08,12,14,19,30.10
2016,08,12,14,20,30.10
2016,08,12,14,21,30.10
2016,08,12,14,22,30.10
2016,08,12,14,23,30.10
2016,08,12,14,24,30.20
2016,08,12,14,25,30.20
2016,08,12,14,26,30.20
2016,08,12,14,27,30.20
2016,08,12,14,28,30.20
2016,08,12,14,29,30.30
2016,08,12,14,30,30.30
2016,08,12,14,31,30.30
2016,08,12,14,32,30.40
2016,08,12,14,33,30.40
2016,08,12,14,34,30.50
2016,08,12,14,35,30.60
2016,08,12,14,36,30.60
2016,08,12,14,37,30.60
2016,08,12,14,38,30.60
2016,08,12,14,39,30.60
2016,08,12,14,40,30.60
2016,08,12,14,41,30.60
2016,08,12,14,42,30.60
2016,08,12,14,43,30.70
2016,08,12,14,44,30.70
2016,08,12,14,45,30.70
2016,08,12,14,46,30.70
2016,08,12,14,47,30.60
2016,08,12,14,48,30.60
2016,08,12,14,49,30.50
2016,08,12,14,50,30.50
2016,08,12,14,51,30.50
2016,08,12,14,52,30.60
2016,08,12,14,53,30.60
2016,08,12,14,54,30.60
2016,08,12,14,55,30.60
2016,08,12,14,56,30.60
2016,08,12,14,57,30.60
2016,08,12,14,58,30.60
2016,08,12,14,59,30.70
2016,08,12,15,00,30.70
2016,08,12,15,01,30.70
2016,08,12,15,02,30.80
2016,08,12,15,03,30.80
2016,08,12,15,04,30.90
2016,08,12,15,05,30.90
2016,08,12,15,06,30.90
2016,08,12,15,07,30.90
2016,08,12,15,08,30.90
2016,08,12,15,09,30.90
2016,08,12,15,10,30.90
2016,08,12,15,11,30.90
2016,08,12,15,12,30.80
2016,08,12,15,13,30.80
2016,08,12,15,14,30.80
2016,08,12,15,15,30.80
2016,08,12,15,16,30.80
2016,08,12,15,17,30.80
2016,08,12,15,18,30.90
2016,08,12,15,19,30.90
2016,08,12,15,20,30.90
2016,08,12,15,21,30.90
2016,08,12,15,22,31.00
2016,08,12,15,23,31.00
2016,08,12,15,24,31.10
2016,08,12,15,25,31.00
2016,08,12,15,26,30.90
2016,08,12,15,27,30.90
2016,08,12,15,28,30.80
2016,08,12,15,29,30.80
2016,08,12,15,30,30.80
2016,08,12,15,31,30.70
2016,08,12,15,32,30.70
2016,08,12,15,33,30.70
2016,08,12,15,34,30.70
2016,08,12,15,35,30.80
2016,08,12,15,36,30.80
2016,08,12,15,37,30.80
2016,08,12,15,38,30.80
2016,08,12,15,39,30.90
2016,08,12,15,40,30.90
2016,08,12,15,41,30.90
2016,08,12,15,42,31.00
2016,08,12,15,43,31.00
2016,08,12,15,44,31.10
2016,08,12,15,45,31.10
2016,08,12,15,46,31.10
2016,08,12,15,47,31.10
2016,08,12,15,48,31.10
2016,08,12,15,49,31.10
2016,08,12,15,50,31.20
2016,08,12,15,51,31.10
2016,08,12,15,52,31.10
2016,08,12,15,53,31.00
2016,08,12,15,54,31.00
2016,08,12,15,55,30.90
2016,08,12,15,56,30.90
2016,08,12,15,57,30.80
2016,08,12,15,58,30.80
2016,08,12,15,59,30.80
2016,08,12,16,00,30.80
2016,08,12,16,01,30.80
2016,08,12,16,02,30.80
2016,08,12,16,03,30.70
2016,08,12,16,04,30.70
2016,08,12,16,05,30.70
2016,08,12,16,06,30.70
2016,08,12,16,07,30.70
2016,08,12,16,08,30.80
2016,08,12,16,09,30.80
2016,08,12,16,10,30.90
2016,08,12,16,11,30.90
2016,08,12,16,12,31.00
2016,08,12,16,13,31.00
2016,08,12,16,14,31.10
2016,08,12,16,15,31.10
2016,08,12,16,16,31.10
2016,08,12,16,17,31.10
2016,08,12,16,18,31.10
2016,08,12,16,19,31.10
2016,08,12,16,20,31.10
2016,08,12,16,21,31.10
2016,08,12,16,22,31.10
2016,08,12,16,23,31.20
2016,08,12,16,24,31.20
2016,08,12,16,25,31.20
2016,08,12,16,26,31.20
2016,08,12,16,27,31.20
2016,08,12,16,28,31.20
2016,08,12,16,29,31.30
2016,08,12,16,30,31.30
2016,08,12,16,31,31.30
2016,08,12,16,32,31.30
2016,08,12,16,33,31.30
2016,08,12,16,34,31.20
2016,08,12,16,35,31.20
2016,08,12,16,36,31.20
2016,08,12,16,37,31.20
2016,08,12,16,38,31.20
2016,08,12,16,39,31.20
2016,08,12,16,40,31.20
2016,08,12,16,41,31.20
2016,08,12,16,42,31.00
2016,08,12,16,43,31.10
2016,08,12,16,44,31.10
2016,08,12,16,45,31.10
2016,08,12,16,46,31.10
2016,08,12,16,47,31.10
2016,08,12,16,48,31.20
2016,08,12,16,49,31.10
2016,08,12,16,50,31.10
2016,08,12,16,51,31.10
2016,08,12,16,52,31.10
2016,08,12,16,53,31.10
2016,08,12,16,54,31.10
2016,08,12,16,55,31.10
2016,08,12,16,56,31.10
2016,08,12,16,57,31.10
2016,08,12,16,58,31.10
2016,08,12,16,59,31.10
2016,08,12,17,00,31.10
2016,08,12,17,01,31.10
2016,08,12,17,02,31.10
2016,08,12,17,03,31.10
2016,08,12,17,04,31.20
2016,08,12,17,05,31.20
2016,08,12,17,06,31.20
2016,08,12,17,07,31.20
2016,08,12,17,08,31.30
2016,08,12,17,09,31.30
2016,08,12,17,10,31.30
2016,08,12,17,11,31.30
2016,08,12,17,12,31.30
2016,08,12,17,13,31.30
2016,08,12,17,14,31.30
2016,08,12,17,15,31.30
2016,08,12,17,16,31.30
2016,08,12,17,17,31.20
2016,08,12,17,18,31.20
2016,08,12,17,19,31.20